Вернуться в каталог

ATLAS AGENA R/B

АктивенMEO
NORAD 7964·ROCKET BODY·🇺🇸 United States

Запущен Jun 18, 1975 с Cape Canaveral Space Force Station

Loading…

Ближайшие Пролёты (ближайшие 24 часа)

TLE

СвежийSource: Space-Track

Эпоха: Sep 14, 2026, 05:41 UTC

1 07964U 75055B   26257.23741690 -.00000023  00000-0  00000-0 0  9998
2 07964   9.4185 230.5966 1192972 148.4014 219.2030  1.02089476 27608

Отслеживайте ATLAS AGENA R/B в реальном времени с AllMySat

Download on the App Store